sat.trackr.live / text

‹ back to catalog

STARLINK-36255

NORAD 67102 · 2025-299A

PAYLOAD ACTIVE UNKNOWN

§ Identity

Operator
Country
US
Launch date
2025-12-15
Launch site
AFETR
Launch vehicle
Mass (kg)
RCS (m²)

Purposes: comms

External: N2YO · Heavens-Above · Gunter

§ Orbital elements

Epoch: 2026-05-24T22:06:55.517760Z

Period
94.27 min
Inclination
42.9980°
Eccentricity
0.0000461
Mean motion
15.27595342 rev/d
Perigee alt
482.7 km
Apogee alt
483.3 km
Semi-major
6,861.1 km
B*
7.5339e-4
RAAN
98.5900°
Arg perigee
271.7252°
Mean anomaly
88.3546°
Rev number
2,477

§ Raw data

STARLINK-362551 67102U 25299A   26144.92147590  .00020537  00000+0  75339-3 0  99932 67102  42.9980  98.5900 0000461 271.7252  88.3546 15.27595342 24775

JSON: /api/v1/satellites/67102 · /tle

For live sub-satellite position, see the globe view (requires WebGL).

§ Visibility from observer

Set your observer location to see the next 7 days of passes ≥ 10°. The values pass through the URL so the page stays shareable.

No JS? Fill the form by hand. The geolocation button needs JavaScript.